G0AMO Weather Reports


Display with metric or nautical units.
time (UTC)temp
F
wind
direction
speed
MPH
gust
MPH
rain 1hr
in
rain 24hr
in
rain mn
in
humidity
%
barometer
mb
20260502130503 68 232 0.0 0.0 0.00 0.00 0.00 53 1015.6
20260502123004 65 77 2.0 5.0 0.00 0.00 0.00 60 1015.9
20260502122504 66 50 3.0 5.0 0.00 0.00 0.00 60 1015.9
20260502122004 65 220 0.0 0.0 0.00 0.00 0.00 61 1016.3
20260502121503 66 257 0.0 0.0 0.00 0.00 0.00 61 1016.3
20260502120503 65 331 0.0 12.0 0.00 0.00 0.00 64 1016.3
20260502115005 63 82 0.0 12.0 0.00 0.00 0.00 66 1016.6
20260502114505 64 24 6.0 7.0 0.00 0.00 0.00 65 1016.6
20260502114004 64 73 5.0 7.0 0.00 0.00 0.00 66 1016.6
20260502113004 63 83 6.0 12.0 0.00 0.00 0.00 67 1016.9
20260502112504 64 100 5.0 7.0 0.00 0.00 0.00 64 1017.3
20260502112004 64 334 3.0 5.0 0.00 0.00 0.00 62 1016.6
20260502111504 64 132 0.0 5.0 0.00 0.00 0.00 66 1017.3
20260502111004 64 214 0.0 5.0 0.00 0.00 0.00 64 1017.3
20260502110505 63 101 2.0 5.0 0.00 0.00 0.00 67 1017.3
20260502110004 64 9 1.0 2.0 0.00 0.00 0.00 67 1017.3
20260502105504 63 121 0.0 0.0 0.00 0.00 0.00 68 1017.3
20260502105004 61 7 0.0 2.0 0.00 0.00 0.00 68 1017.3
20260502103504 61 105 0.0 2.0 0.00 0.00 0.00 71 1017.9
20260502103004 62 130 0.0 2.0 0.00 0.00 0.00 72 1017.9
20260502102505 62 132 3.0 9.0 0.00 0.00 0.00 70 1017.9
20260502101504 60 98 0.0 2.0 0.00 0.00 0.00 75 1017.9
20260502100504 60 295 3.0 5.0 0.00 0.00 0.00 76 1018.3
20260502091004 56 94 2.0 5.0 0.00 0.00 0.00 83 1018.9
20260502090504 54 336 0.0 0.0 0.00 0.00 0.00 87 1018.6
20260502071503 48 219 0.0 0.0 0.00 0.00 0.00 99 1018.6
20260502071005 48 219 0.0 0.0 0.00 0.00 0.00 99 1018.6
20260502070504 48 220 0.0 0.0 0.00 0.00 0.00 99 1019.0
20260502070005 47 265 0.0 0.0 0.00 0.00 0.00 99 1019.0
20260502065505 48 265 0.0 0.0 0.00 0.00 0.00 99 1018.6
20260502065004 48 306 0.0 0.0 0.00 0.00 0.00 99 1020.0
20260502064005 47 306 0.0 0.0 0.00 0.00 0.00 99 1018.6
20260502063503 48 306 0.0 0.0 0.00 0.00 0.00 99 1019.6
20260502063004 48 306 0.0 0.0 0.00 0.00 0.00 99 1019.6
20260502062003 48 306 0.0 0.0 0.00 0.00 0.00 99 1020.0
20260502060504 47 306 0.0 0.0 0.00 0.00 0.00 99 1020.0
20260502060004 47 306 0.0 0.0 0.00 0.00 0.00 99 1018.6
20260502055505 47 306 0.0 0.0 0.00 0.00 0.00 98 1018.6
20260502055004 47 306 0.0 0.0 0.00 0.00 0.00 98 1020.0
20260502054504 47 306 0.0 0.0 0.00 0.00 0.00 98 1019.0
20260502054004 47 306 0.0 0.0 0.00 0.00 0.00 98 1019.0
20260502052503 47 306 0.0 0.0 0.00 0.00 0.00 98 1019.6
20260502052005 46 306 0.0 0.0 0.00 0.00 0.00 98 1018.6
20260502051503 46 306 0.0 0.0 0.00 0.00 0.00 98 1019.6
20260502051004 46 306 0.0 0.0 0.00 0.00 0.00 98 1019.6
20260502050004 46 306 0.0 0.0 0.00 0.00 0.00 98 1020.0
20260502045504 46 306 0.0 0.0 0.00 0.00 0.00 98 1018.6
20260502045005 46 306 0.0 0.0 0.00 0.00 0.00 98 1018.6
20260502044004 46 306 0.0 0.0 0.00 0.00 0.00 98 1019.6
20260502043504 46 306 0.0 0.0 0.00 0.00 0.00 98 1020.0
20260502043005 46 306 0.0 0.0 0.00 0.00 0.00 98 1018.6
20260502042504 46 306 0.0 0.0 0.00 0.00 0.00 98 1018.6
20260502042003 46 306 0.0 0.0 0.00 0.00 0.00 98 1018.6
20260502041504 46 306 0.0 0.0 0.00 0.00 0.00 98 1019.6
20260502041004 46 306 0.0 0.0 0.00 0.00 0.00 98 1018.6
20260502040503 46 301 0.0 0.0 0.00 0.00 0.00 98 1020.0
20260502035504 46 301 0.0 0.0 0.00 0.00 0.00 98 1020.0
20260502034503 46 301 0.0 0.0 0.00 0.00 0.00 97 1020.0
20260502033504 46 301 0.0 0.0 0.00 0.00 0.00 97 1019.0
20260502033003 46 301 0.0 0.0 0.00 0.00 0.00 97 1019.0
20260502032504 46 301 0.0 0.0 0.00 0.00 0.00 97 1019.0
20260502032004 46 301 0.0 0.0 0.00 0.00 0.00 97 1019.3
20260502031504 46 301 0.0 0.0 0.00 0.00 0.00 97 1019.3
20260502031004 46 301 0.0 2.0 0.00 0.00 0.00 97 1019.3
20260502030004 46 301 0.0 0.0 0.00 0.00 0.00 97 1020.3
20260502025004 47 301 0.0 0.0 0.00 0.00 0.00 97 1020.3
20260502023504 46 301 0.0 0.0 0.00 0.00 0.00 96 1019.3
20260502023004 46 301 0.0 0.0 0.00 0.00 0.00 96 1019.3
20260502022505 45 301 0.0 0.0 0.00 0.00 0.00 96 1019.3
20260502022004 45 301 0.0 0.0 0.00 0.00 0.00 96 1020.3
20260502021004 46 301 0.0 0.0 0.00 0.00 0.00 96 1019.3
20260502020503 45 301 0.0 0.0 0.00 0.00 0.00 96 1020.3
20260502020004 45 301 0.0 0.0 0.00 0.00 0.00 96 1020.3
20260502015505 45 301 0.0 0.0 0.00 0.00 0.00 96 1019.3
20260502015004 45 301 0.0 0.0 0.00 0.00 0.00 96 1020.0
20260502014504 46 301 0.0 0.0 0.00 0.00 0.00 96 1019.3
20260502014005 46 301 0.0 0.0 0.00 0.00 0.00 95 1019.6
20260502013003 46 301 0.0 0.0 0.00 0.00 0.00 95 1020.7
20260502012504 46 301 0.0 0.0 0.00 0.00 0.00 95 1019.9
20260502012004 47 301 0.0 0.0 0.00 0.00 0.00 95 1019.6
20260502011503 47 301 0.0 0.0 0.00 0.00 0.00 95 1019.6
20260502011004 47 301 0.0 0.0 0.00 0.00 0.00 95 1019.6
20260502010004 47 301 0.0 0.0 0.00 0.00 0.00 95 1020.7
20260502005504 47 301 0.0 0.0 0.00 0.00 0.00 95 1020.1
20260502005004 47 301 0.0 0.0 0.00 0.00 0.00 95 1019.8
20260502004504 47 301 0.0 0.0 0.00 0.00 0.00 95 1020.3
20260502004004 47 301 0.0 0.0 0.00 0.00 0.00 95 1020.3
20260502003504 47 301 0.0 0.0 0.00 0.00 0.00 95 1019.6
20260502003004 48 301 0.0 0.0 0.00 0.00 0.00 94 1019.7
20260502002504 48 301 0.0 0.0 0.00 0.00 0.00 94 1020.0
20260502002004 48 301 0.0 0.0 0.00 0.00 0.00 94 1020.2
20260502001504 48 301 0.0 0.0 0.00 0.00 0.00 94 1020.8
20260502000504 49 301 0.0 0.0 0.00 0.00 0.00 94 1020.0
20260502000004 49 301 0.0 0.0 0.00 0.00 0.00 93 1020.0
20260501235505 49 301 0.0 0.0 0.00 0.00 0.00 93 1021.0
20260501235004 50 301 0.0 0.0 0.00 0.00 0.00 93 1021.0
20260501234503 49 301 0.0 0.0 0.00 0.00 0.00 93 1021.3
20260501234005 50 301 0.0 0.0 0.00 0.00 0.00 93 1020.3
20260501233503 50 301 0.0 0.0 0.00 0.00 0.00 93 1020.3
20260501233004 50 301 0.0 0.0 0.00 0.00 0.00 92 1020.0
20260501232504 50 301 0.0 0.0 0.00 0.00 0.00 92 1020.3
20260501231504 51 301 0.0 0.0 0.00 0.00 0.00 92 1020.3
20260501230504 51 244 0.0 0.0 0.00 0.00 0.00 92 1020.3
20260501230004 51 244 0.0 0.0 0.00 0.00 0.00 92 1020.3
20260501225505 51 244 0.0 0.0 0.00 0.00 0.00 91 1021.0
20260501225004 52 244 0.0 0.0 0.00 0.00 0.00 91 1021.3
20260501224003 52 257 0.0 0.0 0.00 0.00 0.00 90 1021.3
20260501223504 52 228 0.0 0.0 0.00 0.00 0.00 90 1021.3
20260501222503 53 228 0.0 0.0 0.00 0.00 0.00 89 1020.3
20260501222004 53 228 0.0 0.0 0.00 0.00 0.00 88 1021.0
20260501221504 53 228 0.0 0.0 0.00 0.00 0.00 88 1020.3
20260501220505 54 228 0.0 0.0 0.00 0.00 0.00 87 1020.3
20260501220004 54 228 0.0 0.0 0.00 0.00 0.00 87 1020.3
20260501215503 54 228 0.0 0.0 0.00 0.00 0.00 86 1020.3
20260501215004 55 228 0.0 2.0 0.00 0.00 0.00 86 1020.7
20260501214503 55 263 0.0 2.0 0.00 0.00 0.00 86 1021.3
20260501214004 55 251 0.0 0.0 0.00 0.00 0.00 86 1021.3
20260501213004 55 234 0.0 0.0 0.00 0.00 0.00 85 1020.3
20260501212504 55 234 0.0 0.0 0.00 0.00 0.00 85 1020.3
20260501212005 55 207 0.0 0.0 0.00 0.00 0.00 85 1021.0
20260501211505 55 244 0.0 0.0 0.00 0.00 0.00 84 1020.3
20260501211004 55 262 0.0 0.0 0.00 0.00 0.00 84 1020.0
20260501205503 55 185 0.0 0.0 0.00 0.00 0.00 84 1021.0
20260501205003 55 240 0.0 0.0 0.00 0.00 0.00 83 1020.0
20260501204505 55 250 0.0 2.0 0.00 0.00 0.00 82 1020.0
20260501203005 56 150 1.0 5.0 0.00 0.00 0.00 80 1021.0
20260501202503 56 282 1.0 2.0 0.00 0.00 0.00 79 1020.3
20260501201504 57 203 0.0 0.0 0.00 0.00 0.00 78 1020.0
20260501200004 57 228 0.0 0.0 0.00 0.00 0.00 76 1020.0
20260501195503 58 195 0.0 0.0 0.00 0.00 0.00 75 1020.0
20260501195004 58 240 0.0 0.0 0.00 0.00 0.00 75 1020.0
20260501194503 58 228 0.0 5.0 0.00 0.00 0.00 74 1020.0
20260501193505 59 257 0.0 0.0 0.00 0.00 0.00 74 1020.0
20260501193004 59 254 0.0 0.0 0.00 0.00 0.00 74 1020.0
20260501192505 59 233 0.0 0.0 0.00 0.00 0.00 74 1020.3
20260501192004 59 219 0.0 0.0 0.00 0.00 0.00 74 1020.3
20260501191504 60 254 0.0 2.0 0.00 0.00 0.00 73 1020.3
20260501191004 60 234 1.0 2.0 0.00 0.00 0.00 73 1020.0
20260501190004 61 157 0.0 0.0 0.00 0.00 0.00 72 1019.6
20260501185504 61 239 0.0 0.0 0.00 0.00 0.00 72 1020.0
20260501185005 62 208 0.0 0.0 0.00 0.00 0.00 71 1019.3
20260501184504 62 246 0.0 0.0 0.00 0.00 0.00 71 1020.0
20260501184004 62 218 0.0 0.0 0.00 0.00 0.00 70 1019.3
20260501183505 62 257 0.0 0.0 0.00 0.00 0.00 69 1020.0
20260501182504 63 267 0.0 5.0 0.00 0.00 0.00 68 1020.0
20260501182004 63 267 0.0 0.0 0.00 0.00 0.00 67 1020.0
20260501181504 64 267 0.0 0.0 0.00 0.00 0.00 67 1020.0
20260501181004 64 267 0.0 0.0 0.00 0.00 0.00 66 1020.0
20260501180504 65 267 0.0 0.0 0.00 0.00 0.00 65 1020.0
20260501175503 65 247 0.0 2.0 0.00 0.00 0.00 65 1019.3
20260501175004 64 143 0.0 2.0 0.00 0.00 0.00 66 1020.0
20260501174504 64 250 1.0 2.0 0.00 0.00 0.00 66 1019.6
20260501174004 64 115 0.0 5.0 0.00 0.00 0.00 65 1020.0
20260501173504 64 264 2.0 7.0 0.00 0.00 0.00 65 1019.6
20260501173004 65 208 5.0 7.0 0.00 0.00 0.00 65 1020.0
20260501172004 65 286 1.0 3.0 0.00 0.00 0.00 65 1019.6
20260501171505 65 305 0.0 2.0 0.00 0.00 0.00 65 1019.6
20260501171003 65 288 0.0 2.0 0.00 0.00 0.00 64 1019.3
20260501170505 65 291 0.0 2.0 0.00 0.00 0.00 65 1019.6
20260501170004 65 294 0.0 0.0 0.00 0.00 0.00 65 1019.9
20260501165504 66 264 0.0 0.0 0.00 0.00 0.00 66 1019.7
20260501164505 66 174 0.0 2.0 0.00 0.00 0.00 65 1019.9
20260501164004 66 155 0.0 0.0 0.00 0.00 0.00 65 1019.6
20260501163504 66 209 0.0 2.0 0.00 0.00 0.00 65 1019.8
20260501163004 67 212 0.0 5.0 0.00 0.00 0.00 65 1020.0
20260501162503 67 183 0.0 5.0 0.00 0.00 0.00 65 1019.8
20260501162004 67 317 0.0 7.0 0.00 0.00 0.00 65 1019.8
20260501161504 67 182 1.0 7.0 0.00 0.00 0.00 66 1019.9
20260501161004 67 187 1.0 2.0 0.00 0.00 0.00 68 1019.7
20260501160503 67 53 0.0 2.0 0.00 0.00 0.00 69 1020.0
20260501160004 67 88 1.0 3.0 0.00 0.00 0.00 69 1020.0
20260501155005 66 213 1.0 5.0 0.00 0.00 0.00 69 1020.0
20260501154505 66 233 2.0 5.0 0.00 0.00 0.00 69 1020.0
20260501154004 66 156 1.0 3.0 0.00 0.00 0.00 68 1020.0
20260501153504 67 286 1.0 2.0 0.00 0.00 0.00 67 1020.0
20260501152503 67 158 1.0 21.0 0.00 0.00 0.00 66 1020.0
20260501151504 67 287 2.0 3.0 0.00 0.00 0.00 66 1020.3
20260501151004 67 271 2.0 5.0 0.00 0.00 0.00 67 1020.3
20260501150503 68 301 2.0 9.0 0.00 0.00 0.00 66 1020.7
20260501150004 69 161 2.0 9.0 0.00 0.00 0.00 66 1020.7
20260501145503 68 160 3.0 12.0 0.00 0.00 0.00 66 1020.0
20260501144505 70 271 1.0 12.0 0.00 0.00 0.00 65 1020.3